FORTE

Satellite information

Favourite Embed

Satellite Type and Status

PAYLOADIN ORBIT

Key statistics

Satellite FORTE at a glance.

Uptime

10116

Days in orbit

Revolutions

≈ 14.3

Per day

Orbit

LEO

Low Earth Orbit

Inclination

70.0

Latest

Satellite identification and parameters

Extended collection of information and parameters for FORTE.

Object identification

Identified? True

Debris? False

Object name: FORTE

International designator: 1997-047A

Object number (NORAD): 24920

Object ID (CCSDS): 24920

Country: UNITED STATES OF AMERICA (US)

Current information (Y/N): Y

RCS size: LARGE

Orbital parameters

Period: 100.862 minutes

Inclination: 69.9534 deg

SMA: 7177.587 km

Apoapsis: 813.462 km

Periapsis: 785.441 km

RAAN: 205.4762 deg

Eccentricy: 0.001952

Argument of periapsis: 111.5527 deg

Mean anomaly: 248.7677 deg

Mean motion: 14.2769387 rev/day

Mean motion (dot): 0.00000257 rev/day2

B* drag term: 0.0001274 1/REarth

Two-line elements (TLE)

Creation date: May 10, 2025, 2:32 a.m.

Reference frame: TEME

Reference center: EARTH

Epoch: May 9, 2025, 1:49 p.m. UTC

TLE line 0: 0 FORTE

TLE line 1: 1 24920U 97047A 25129.57616740 .00000257 00000-0 12740-3 0 9990

TLE line 2: 2 24920 69.9534 205.4762 0019520 111.5527 248.7677 14.27693870441074

Live tracking on map

Real-time ground track for satellite FORTE.

In-orbit conjunctions

There are no conjunctions computed for FORTE, at the moment. Check back to stay up to date, as we update our databases every day.

Go to all conjunctions

Associated space launch

FORTE was lifted into orbit during the mission ‘Pegasus XL | Fast On-orbit Rapid Recording of Transient Events (FORTE)’, on board a Pegasus XL space rocket.

The launch took place on Aug. 29, 1997, 3:02 p.m. from Space Launch Complex 10E.

For more information about the launch, click the button.

Launch to space Pegasus XL | Fast On-orbit Rapid Recording of Transient Events (FORTE)
Pegasus XL | Fast On-orbit Rapid Recording of Transient Events (FORTE)

Agency: N/A

Status: Launch Successful

Launch date: Aug. 29, 1997, 3:02 p.m. UTC

Rocket: Pegasus XL

Launch pad: Space Launch Complex 10E

Location: Vandenberg SFB, CA, USA

...

Latest news about this satellite

There are no fresh news available about this satellite. Check back as we update our databases every day.


Newsletter sign-up

Weekly statistics, charts and insights to help you stay on top of the space industry.